Flag for Croatia Weather past 2 weeks in Dubrovnik, Croatia

Now
45 °F

Passing clouds.


Feels Like: 34 °F
Forecast: 43 / 50 °F
Wind: 32 mph from Northeast

Location: Dubrovnik / Cilipi

Current Time: Mar 6, 2015 at 1:38:43 AM

Latest Report: Mar 6, 2015 at 1:00 AM


Visibility: N/A

Pressure: 29.86 "Hg

Humidity: 53%

Dew point: 28 °F

Location of DubrovnikLocation

Historic Weather in Dubrovnik — Graph

°F

Dubrovnik temperature yesterday

Maximum temperature yesterday: 52 °F (at 2:00 AM)
Minimum temperature yesterday: 41 °F (at 11:00 AM)
Average temperature yesterday: 46 °F

Past Weeks' High & Low Weather Summary

 TemperatureHumidityPressure
High63 °F (Mar 3, 1:00 PM)100% (Feb 23, 5:00 PM)30.48 "Hg (Feb 23, 5:00 PM)
Low36 °F (Feb 21, 1:00 AM)13% (Feb 19, 12:00 AM)29.53 "Hg (Feb 25, 3:30 AM)
Average50 °F67%29.93 "Hg
* Reported Midnight between Feb 18 and Feb 19 — Mar 6 12:30 AM, Dubrovnik, Weather by CustomWeather, © 2015

Note: Actual official high and low records may vary slightly from our data, if they occured in-between our weather recording intervals... More about our weather records

Advertising

Dubrovnik weather history for previous 24 hours

 ConditionsComfort  
Time TempWeatherWind HumidityBarometerVisibility
12:30 AM
Fri, Mar 6
45 °FPassing clouds.37 mph53%29.86 "HgN/A
12:00 AM45 °FPassing clouds.39 mph57%29.86 "HgN/A
11:30 PM
Thu, Mar 5
43 °FPartly cloudy.43 mph61%29.86 "HgN/A
11:00 PM43 °FPassing clouds.43 mph61%29.86 "HgN/A
10:30 PM41 °FPassing clouds.38 mph70%29.83 "HgN/A
10:00 PM41 °FPassing clouds.37 mph76%29.83 "HgN/A
9:30 PM41 °FPassing clouds.39 mph76%29.80 "HgN/A
9:00 PM41 °FRain. Mostly cloudy.43 mph76%29.80 "Hg4 mi
8:30 PM41 °FRain. Mostly cloudy.33 mph76%29.80 "Hg4 mi
8:00 PM41 °FLight rain. Mostly cloudy.32 mph76%29.77 "Hg6 mi
7:30 PM43 °FRain. Mostly cloudy.28 mph71%29.77 "Hg5 mi
7:00 PM41 °FRain. Mostly cloudy.32 mph81%29.77 "Hg4 mi
6:30 PM41 °FRain. Mostly cloudy.29 mph81%29.77 "Hg3 mi
6:00 PM41 °FRain. Mostly cloudy.31 mph81%29.71 "Hg3 mi
5:30 PM43 °FRain. Mostly cloudy.32 mph76%29.68 "Hg3 mi
5:00 PM43 °FRain. Mostly cloudy.39 mph76%29.65 "Hg4 mi
4:30 PM43 °FRain. Mostly cloudy.47 mph76%29.62 "Hg2 mi
4:00 PM43 °FRain. Cloudy.43 mph81%29.65 "Hg2 mi
3:30 PM43 °FRain. Mostly cloudy.39 mph81%29.65 "Hg4 mi
3:00 PM43 °FHeavy rain. Cloudy.36 mph81%29.68 "Hg1 mi
2:30 PM43 °FHeavy rain. Mostly cloudy.33 mph87%29.68 "Hg1 mi
2:00 PM45 °FRain. Mostly cloudy.29 mph81%29.68 "Hg2 mi
1:30 PM46 °FHeavy rain. Mostly cloudy.25 mph82%29.71 "Hg2 mi
1:00 PM43 °FHeavy rain. Mostly cloudy.29 mph87%29.71 "Hg1 mi
12:30 PM45 °FHeavy rain. Mostly cloudy.28 mph87%29.71 "Hg1 mi
12:00 PM43 °FRain showers. Cloudy.33 mph87%29.74 "Hg2 mi
11:30 AM43 °FHeavy rain. Mostly cloudy.36 mph81%29.74 "Hg2 mi
11:00 AM41 °FHeavy rain. Mostly cloudy.35 mph87%29.74 "Hg1 mi
10:30 AM43 °FRain showers. Mostly cloudy.36 mph87%29.74 "Hg1 mi
10:00 AM45 °FRain. Mostly cloudy.31 mph93%29.74 "Hg1 mi
9:30 AM48 °FRain. Mostly cloudy.9 mph100%29.74 "Hg2 mi
9:00 AM48 °FHeavy rain. Cloudy.20 mph94%29.74 "Hg1 mi
8:30 AM50 °FHeavy rain. Broken clouds.17 mph100%29.74 "Hg3 mi
8:00 AM52 °FHeavy rain. Mostly cloudy.23 mph94%29.74 "Hg2 mi
7:30 AM52 °FHeavy rain. Mostly cloudy.21 mph94%29.74 "Hg2 mi
7:00 AM52 °FHeavy rain. Broken clouds.26 mph94%29.74 "Hg2 mi
6:30 AM52 °FRain. Partly sunny.25 mph94%29.74 "Hg3 mi
6:00 AM52 °FHeavy rain. Partly cloudy.24 mph94%29.77 "Hg2 mi
5:30 AM52 °FHeavy rain. Partly cloudy.21 mph94%29.80 "Hg2 mi
5:00 AM52 °FRain. Partly cloudy.25 mph94%29.77 "Hg4 mi
4:00 AM52 °FHeavy rain. Partly cloudy.24 mph94%29.80 "Hg3 mi
3:00 AM52 °FRain. Partly cloudy.24 mph94%29.83 "Hg4 mi
2:30 AM52 °FRain. Partly cloudy.22 mph100%29.89 "Hg4 mi
2:00 AM52 °FHeavy rain. Partly cloudy.21 mph94%29.89 "Hg2 mi
1:30 AM50 °FHeavy rain. Partly cloudy.8 mph100%29.92 "Hg3 mi
1:00 AM50 °FRain. Partly cloudy.13 mph100%29.92 "Hg5 mi
Weather by CustomWeather, © 2015

See weather overviewHow to use our weather pages